• In Österreich
  • Länderverzeichnis
  • Für 7 Tage
  • Wassertemperatur
  • Satellitenkarten
  • Wetterkarte
  • News
  • Widgets
  • user-avatar
    Anmelden

    Stündliche Wetter Linz

    Heute, 12 Dezember, Dienstag

    Zeit Temperatur Niederschläge Wind Luftdruck Luftfeuchtigkeit
    00:00 +5°C° 0 mm 2 m/S 715 mmHg 91%
    01:00 +2°C° 0 mm 3 m/S 716 mmHg 95%
    02:00 +3°C° 0,2 mm 2 m/S 717 mmHg 94%
    03:00 +4°C° 0,2 mm 2 m/S 718 mmHg 93%
    04:00 +4°C° 0,2 mm 2 m/S 719 mmHg 93%
    05:00 +4°C° 0,7 mm 2 m/S 720 mmHg 92%
    06:00 +3°C° 0,7 mm 3 m/S 721 mmHg 91%
    07:00 +3°C° 0,7 mm 3 m/S 722 mmHg 90%
    08:00 +3°C° 0,2 mm 3 m/S 723 mmHg 89%
    09:00 +3°C° 0,2 mm 4 m/S 724 mmHg 87%
    10:00 +3°C° 0,2 mm 4 m/S 726 mmHg 85%
    11:00 +3°C° 0,1 mm 4 m/S 726 mmHg 84%
    12:00 +3°C° 0,1 mm 4 m/S 727 mmHg 83%
    13:00 +3°C° 0,1 mm 4 m/S 728 mmHg 83%
    14:00 +1°C° 0,1 mm 4 m/S 729 mmHg 84%
    15:00 +2°C° 0,1 mm 3 m/S 730 mmHg 85%
    16:00 +1°C° 0,1 mm 3 m/S 730 mmHg 86%
    17:00 +2°C° 0,1 mm 2 m/S 731 mmHg 87%
    18:00 +1°C° 0,1 mm 2 m/S 732 mmHg 87%
    19:00 +1°C° 0,1 mm 2 m/S 732 mmHg 88%
    20:00 +1°C° 0,1 mm 2 m/S 733 mmHg 88%
    21:00 +1°C° 0,1 mm 2 m/S 733 mmHg 89%
    22:00 +1°C° 0,1 mm 2 m/S 734 mmHg 89%
    23:00 +1°C° 0,1 mm 2 m/S 734 mmHg 89%

    Morgen, 13 Dezember, Mittwoch

    Zeit Temperatur Niederschläge Wind Luftdruck Luftfeuchtigkeit
    00:00 +1°C° 0,1 mm 2 m/S 735 mmHg 89%
    01:00 +1°C° 0,1 mm 2 m/S 735 mmHg 89%
    02:00 +1°C° 0 mm 2 m/S 735 mmHg 90%
    03:00 +2°C° 0 mm 1 m/S 735 mmHg 90%
    04:00 +1°C° 0 mm 1 m/S 736 mmHg 91%
    05:00 +1°C° 0 mm 1 m/S 736 mmHg 91%
    06:00 +1°C° 0 mm 1 m/S 736 mmHg 91%
    07:00 0°C° 0 mm 1 m/S 736 mmHg 91%
    08:00 +1°C° 0 mm 1 m/S 736 mmHg 88%
    09:00 +1°C° 0 mm 1 m/S 736 mmHg 85%
    10:00 +2°C° 0 mm 1 m/S 736 mmHg 82%
    11:00 +3°C° 0 mm 1 m/S 735 mmHg 79%
    12:00 +4°C° 0 mm 1 m/S 734 mmHg 75%
    13:00 +4°C° 0 mm 1 m/S 734 mmHg 71%
    14:00 +3°C° 0 mm 1 m/S 733 mmHg 75%
    15:00 +2°C° 0 mm 1 m/S 733 mmHg 79%
    16:00 +1°C° 0 mm 1 m/S 732 mmHg 83%
    17:00 -1°C° 0 mm 2 m/S 732 mmHg 82%
    18:00 -1°C° 0 mm 2 m/S 731 mmHg 82%
    19:00 -1°C° 0 mm 2 m/S 731 mmHg 82%
    20:00 -1°C° 0 mm 2 m/S 730 mmHg 81%
    21:00 +2°C° 0 mm 1 m/S 729 mmHg 81%
    22:00 +2°C° 0 mm 1 m/S 729 mmHg 80%
    23:00 +1°C° 0,1 mm 2 m/S 728 mmHg 80%

    übermorgen, 14 Dezember, Donnerstag

    Zeit Temperatur Niederschläge Wind Luftdruck Luftfeuchtigkeit
    00:00 +1°C° 0,1 mm 2 m/S 727 mmHg 81%
    01:00 +1°C° 0,1 mm 2 m/S 727 mmHg 81%
    02:00 +2°C° 0,1 mm 2 m/S 726 mmHg 81%
    03:00 +2°C° 0,1 mm 2 m/S 725 mmHg 81%
    04:00 +2°C° 0,1 mm 2 m/S 725 mmHg 81%
    05:00 +2°C° 0,1 mm 2 m/S 725 mmHg 81%
    06:00 +2°C° 0,1 mm 2 m/S 724 mmHg 80%
    07:00 +3°C° 0,1 mm 2 m/S 724 mmHg 80%
    08:00 +3°C° 0,1 mm 2 m/S 724 mmHg 79%
    09:00 +3°C° 0,1 mm 3 m/S 725 mmHg 78%
    10:00 +4°C° 0,1 mm 3 m/S 725 mmHg 77%
    11:00 +4°C° 0,2 mm 3 m/S 724 mmHg 79%
    12:00 +5°C° 0,2 mm 3 m/S 724 mmHg 81%
    13:00 +5°C° 0,2 mm 3 m/S 724 mmHg 82%
    14:00 +4°C° 0,3 mm 3 m/S 724 mmHg 85%
    15:00 +5°C° 0,3 mm 2 m/S 724 mmHg 88%
    16:00 +4°C° 0,3 mm 2 m/S 724 mmHg 91%
    17:00 +4°C° 0,5 mm 2 m/S 723 mmHg 91%
    18:00 +4°C° 0,5 mm 2 m/S 723 mmHg 91%
    19:00 +4°C° 0,5 mm 2 m/S 723 mmHg 91%
    20:00 +4°C° 0,2 mm 2 m/S 722 mmHg 90%
    21:00 +2°C° 0,2 mm 3 m/S 721 mmHg 88%
    22:00 +2°C° 0,2 mm 3 m/S 720 mmHg 87%
    23:00 +2°C° 0,5 mm 3 m/S 720 mmHg 87%

    15 Dezember, Freitag

    Zeit Temperatur Niederschläge Wind Luftdruck Luftfeuchtigkeit
    00:00 +2°C° 0,5 mm 3 m/S 719 mmHg 87%
    01:00 +2°C° 0,5 mm 3 m/S 719 mmHg 87%
    02:00 +2°C° 0,7 mm 3 m/S 720 mmHg 88%
    03:00 +2°C° 0,7 mm 3 m/S 721 mmHg 90%
    04:00 +2°C° 0,7 mm 3 m/S 721 mmHg 91%
    05:00 +2°C° 0,1 mm 3 m/S 722 mmHg 90%
    06:00 +1°C° 0,1 mm 3 m/S 722 mmHg 89%
    07:00 +1°C° 0,1 mm 3 m/S 722 mmHg 87%
    08:00 +1°C° 0 mm 3 m/S 722 mmHg 87%
    09:00 +2°C° 0 mm 3 m/S 722 mmHg 86%
    10:00 +2°C° 0 mm 3 m/S 723 mmHg 85%
    11:00 +2°C° 0 mm 3 m/S 722 mmHg 84%
    12:00 +3°C° 0 mm 3 m/S 722 mmHg 83%
    13:00 +4°C° 0 mm 2 m/S 722 mmHg 82%
    14:00 +3°C° 0 mm 2 m/S 722 mmHg 83%
    15:00 +3°C° 0 mm 2 m/S 722 mmHg 84%
    16:00 +3°C° 0 mm 1 m/S 722 mmHg 86%
    17:00 +3°C° 0 mm 1 m/S 722 mmHg 86%
    18:00 +3°C° 0 mm 1 m/S 723 mmHg 86%
    19:00 +2°C° 0 mm 1 m/S 723 mmHg 85%
    20:00 +1°C° 0,2 mm 2 m/S 723 mmHg 85%
    21:00 +2°C° 0,2 mm 2 m/S 723 mmHg 84%
    22:00 +2°C° 0,2 mm 2 m/S 723 mmHg 84%
    23:00 +1°C° 0,2 mm 2 m/S 724 mmHg 85%

    16 Dezember, Samstag

    Zeit Temperatur Niederschläge Wind Luftdruck Luftfeuchtigkeit
    00:00 0°C° 0,2 mm 3 m/S 724 mmHg 86%
    01:00 0°C° 0,2 mm 3 m/S 724 mmHg 87%
    02:00 0°C° 0,1 mm 3 m/S 724 mmHg 87%
    03:00 0°C° 0,1 mm 3 m/S 725 mmHg 87%
    04:00 0°C° 0,1 mm 3 m/S 725 mmHg 87%
    05:00 -1°C° 0,1 mm 4 m/S 726 mmHg 87%
    06:00 -1°C° 0,1 mm 4 m/S 726 mmHg 87%
    07:00 -1°C° 0,1 mm 4 m/S 727 mmHg 87%
    08:00 -1°C° 0,2 mm 4 m/S 727 mmHg 86%
    09:00 -1°C° 0,2 mm 4 m/S 728 mmHg 86%
    10:00 -1°C° 0,2 mm 5 m/S 729 mmHg 85%
    11:00 0°C° 0,2 mm 5 m/S 729 mmHg 84%
    12:00 0°C° 0,2 mm 5 m/S 729 mmHg 82%
    13:00 0°C° 0,2 mm 5 m/S 729 mmHg 81%
    14:00 0°C° 0,2 mm 5 m/S 730 mmHg 82%
    15:00 0°C° 0,2 mm 4 m/S 730 mmHg 84%
    16:00 -1°C° 0,2 mm 4 m/S 730 mmHg 86%
    17:00 0°C° 0,1 mm 3 m/S 731 mmHg 86%
    18:00 -1°C° 0,1 mm 3 m/S 732 mmHg 87%
    19:00 -1°C° 0,1 mm 3 m/S 732 mmHg 88%
    20:00 -1°C° 0 mm 3 m/S 732 mmHg 87%
    21:00 -1°C° 0 mm 3 m/S 733 mmHg 86%
    22:00 -1°C° 0 mm 3 m/S 733 mmHg 85%
    23:00 -1°C° 0,2 mm 3 m/S 733 mmHg 86%

    17 Dezember, Sonntag

    Zeit Temperatur Niederschläge Wind Luftdruck Luftfeuchtigkeit
    00:00 -1°C° 0,2 mm 3 m/S 733 mmHg 88%
    01:00 -1°C° 0,2 mm 3 m/S 733 mmHg 89%
    02:00 -1°C° 0,1 mm 3 m/S 733 mmHg 89%
    03:00 -1°C° 0,1 mm 3 m/S 733 mmHg 89%
    04:00 -1°C° 0,1 mm 2 m/S 733 mmHg 89%
    05:00 -1°C° 0,4 mm 2 m/S 734 mmHg 90%
    06:00 -1°C° 0,4 mm 3 m/S 734 mmHg 91%
    07:00 -1°C° 0,4 mm 3 m/S 735 mmHg 92%
    08:00 -1°C° 0,2 mm 3 m/S 735 mmHg 91%
    09:00 -1°C° 0,2 mm 3 m/S 736 mmHg 89%
    10:00 0°C° 0,2 mm 3 m/S 736 mmHg 88%
    11:00 0°C° 0,1 mm 3 m/S 736 mmHg 86%
    12:00 -1°C° 0,1 mm 4 m/S 736 mmHg 85%
    13:00 -1°C° 0,1 mm 4 m/S 736 mmHg 84%
    14:00 0°C° 0,1 mm 3 m/S 737 mmHg 85%
    15:00 -1°C° 0,1 mm 3 m/S 737 mmHg 87%
    16:00 -1°C° 0,1 mm 3 m/S 738 mmHg 88%
    17:00 -1°C° 0,1 mm 3 m/S 738 mmHg 90%
    18:00 -2°C° 0,1 mm 3 m/S 739 mmHg 91%
    19:00 -2°C° 0,1 mm 3 m/S 739 mmHg 93%
    20:00 -2°C° 0,1 mm 3 m/S 740 mmHg 93%
    21:00 -2°C° 0,1 mm 2 m/S 740 mmHg 93%
    22:00 -2°C° 0,1 mm 2 m/S 740 mmHg 93%
    23:00 -2°C° 0,2 mm 2 m/S 741 mmHg 93%
    Mehr zeigen